DECAYED

STARLINK-2027, 47645 (Decayed)

Orbit data source: Space-Track

STARLINK-2027, 47645 was a payload satellite owned by SpaceX/Seattle (US) in LEO that was launched on Tue, 16 Feb 2021 UTC via an FALCON 9 launch vehicle from the Air Force Eastern Test Range (AFETR). Payload-class satellites include a variety of spacecraft equipped with specific instruments for various scientific and technological missions. These include communications satellites like Starlink; space stations such as the ISS; scientific satellites like the Hubble; Earth observation satellites from companies like Planet Labs, Umbra, and HawkEye 360; GPS; miniature CubeSats for education and research; and military/defense satellites.

Not visible in the next 10 days
Identifier
47645, 2021-012AB
Orbit
Decayed
Country
Flag of USUS
Related business
Manufacturer
SpaceX/Seattle
Mission
Decayed Commercial Communications
Bus & Motor
STARLINK, Unknown motor
Mass
260 kg wet, ~248 kg dry
Launch date (UTC)
2021-02-16 (5 years ago)
Launch vehicle
FALCON 9
Launch site
Air Force Eastern Test Range (AFETR)
Object type
Payload
Rocket body
Debris
Shape & HBR
Box + 1 Pan, 4.4 m
Radar Cross Section
13.562 m², Large (>1 m²)

Expand to show TLE details & history
Last TLE update: 7 months ago

TLE from 7 months ago
0 STARLINK-2027
1 47645U 21012AB  25018.09401655  .26943969  12784-4  38633-3 0  9998
2 47645  53.0160  67.6667 0012860 338.0220 104.9836 16.47836919217797
Epoch: 2025-01-18T02:15Z
TLE epoch observation values (Epoch: 2025-01-18T02:15:23.029Z)
Latitude
52.63465°
Longitude
-5.23651°
Altitude
153.564 km
Speed
7.819 km/s
True Right ascension
09h 45m 25s
True Declination
52° 27' 12"
Sunlit
Object was in full shadow at epoch
Visualization orbit readout
Latitude
Unknown
Longitude
Unknown
Altitude
Unknown
Speed
Unknown
Apparent Right ascension
Unknown
Apparent Declination
Unknown
Sunlit
N/A
Visualization observer readout
Local Sidereal Time
18:03:21
Azimuth
Unknown
Elevation
Unknown
Doppler factor
Unknown
Orbital elements
Apogee altitude
153.721 km
Perigee altitude
136.942 km
Semi-major axis
6,523.468 km
Eccentricity
0.00129
Inclination
53.016°
RAAN
67.6667°
Arg. of periapsis
338.022°
True anomaly
105.1259°
Mean anomaly
104.9836°
Eccentric anomaly
105.05475°
Mean motion
4.11932 °/min
Orbital period
87.39 mins
BSTAR
0.00038633
Loading maneuver chart data...
Computing Atmospheric mass density...
Loading historical data...
Loading historical data...
Loading historical data...
Loading historical data...
Loading historical data...
Loading historical data...
Loading historical data...

Documentation

Showing up to 5 results
|